SCP
1 2 4 5 3 1 0 0 0 0 0 0 0 0 0 0 0 0 0 1 0 0 0 1 1 1 1 1 1 1 1 1 1 1 1 1 1 1 1 1 1 1 1 1 1 1 1 0 0
1 2 3 3 2 1 0 0 0 0 0 0 0 0 0 0 0 0 1 1 0 0 0 1 1 1 1 1 1 1 1 1 1 1 1 1 1 1 1 1 1 1 1 1 1 1 0 0 0
1 2 2 2 1 0 0 0 0 0 0 0 0 0 0 0 0 0 1 1 0 0 0 0 0 1 1 1 1 1 1 1 1 1 1 1 1 1 1 1 1 1 1 1 1 1 0 0 0
1 1 1 1 0 0 0 0 0 0 0 0 0 0 0 0 0 0 1 1 0 0 0 0 0 0 0 0 0 0 1 1 1 1 1 1 1 1 1 1 1 1 1 1 1 1 0 0 0
1 1 1 0 0 0 0 0 0 0 0 0 0 0 0 0 0 0 0 0 1 1 1 0 0 0 0 0 0 0 0 0 0 0 0 0 0 1 1 1 1 1 1 1 1 1 1 0 0
1 1 0 0 0 0 0 0 0 0 0 0 0 1 1 1 0 0 0 0 1 1 1 1 0 0 0 0 0 0 0 0 0 0 0 0 0 0 0 0 0 0 0 0 0 0 0 0 1
1 0 0 0 0 0 0 0 0 0 0 0 0 1 1 1 0 0 0 1 1 2 2 1 1 1 0 0 0 0 0 0 0 0 0 0 0 0 0 0 0 0 0 0 0 0 0 0 0
0 0 0 0 0 0 0 0 0 0 0 0 1 1 1 1 1 1 1 1 2 3 2 1 1 1 1 0 0 0 0 0 0 0 0 0 0 0 0 0 0 0 0 0 0 0 0 0 0
0 0 0 0 0 0 0 0 0 0 0 0 1 1 1 1 1 1 1 2 2 3 3 2 2 1 1 0 0 0 0 0 0 0 0 0 0 0 0 1 1 0 0 0 0 0 0 0 0
0 0 0 0 0 0 0 0 0 0 0 1 1 1 1 1 1 1 1 2 3 3 3 4 3 2 1 1 1 0 0 0 0 0 0 0 0 0 1 1 1 1 0 0 0 0 0 0 0
0 0 0 0 0 0 0 0 0 0 1 1 1 1 1 1 1 1 2 2 3 3 4 5 5 3 2 1 1 1 1 1 0 0 0 0 0 1 1 1 1 1 0 0 0 0 0 0 0
0 0 0 0 0 0 0 0 0 1 1 1 1 1 1 1 1 2 2 2 3 4 4 5 5 4 2 2 2 1 1 1 1 1 1 0 0 1 1 1 1 1 1 1 1 1 1 0 0
0 0 0 0 0 0 0 0 1 1 1 1 1 1 1 1 1 2 2 2 3 4 4 5 5 4 3 3 2 2 2 1 1 1 1 1 0 0 1 1 1 1 1 1 1 1 0 0 0
0 0 0 0 0 0 0 1 1 1 2 2 1 1 1 1 2 2 2 3 3 4 5 6 6 5 4 4 3 3 2 2 1 1 1 1 1 1 1 1 1 1 1 1 1 1 1 0 0
0 0 0 0 0 0 1 1 1 2 2 2 2 1 2 2 2 2 3 3 3 4 6 8 7 6 5 4 4 3 2 2 1 2 2 2 1 1 1 1 1 1 1 1 1 1 1 1 0
0 0 0 0 0 0 1 1 2 2 2 2 2 2 2 2 2 2 3 3 3 4 7 9 8 7 5 4 4 3 2 2 1 2 2 2 2 1 1 1 1 1 1 1 1 1 1 1 1
0 0 0 0 0 0 1 1 2 2 2 2 2 2 2 3 3 3 3 3 4 5 7 8 8 7 5 4 4 4 3 2 2 2 2 2 2 2 1 1 1 1 1 1 1 1 1 1 1
0 0 0 0 0 0 1 1 2 2 2 2 3 3 3 3 3 3 4 4 4 6 7 7 7 6 5 5 5 4 3 2 2 2 2 2 2 2 1 1 2 2 1 1 1 1 1 1 1
0 0 0 0 0 0 1 1 2 2 2 2 3 4 3 3 3 4 4 4 5 7 7 6 5 5 5 5 5 5 3 2 2 2 3 3 3 2 1 2 3 3 2 1 1 2 2 1 1
0 0 0 0 0 1 1 1 2 2 2 2 3 4 4 4 5 5 5 5 6 7 6 5 5 5 5 5 5 4 3 2 2 3 3 4 3 2 2 2 4 4 3 2 2 2 2 2 2
0 0 0 0 0 0 1 1 2 2 2 2 3 3 4 5 6 6 6 6 6 6 5 5 5 5 5 5 4 4 3 2 2 3 4 4 4 3 2 3 4 4 3 2 2 3 3 4 4
0 0 0 0 0 0 1 1 2 2 2 2 2 3 4 5 6 7 7 6 6 5 5 5 5 5 5 5 4 4 3 3 3 3 4 4 4 3 3 3 4 5 4 3 3 3 4 4 5
0 0 0 0 0 0 1 1 2 2 2 2 2 2 4 5 6 7 7 6 6 5 5 5 6 5 5 5 5 5 5 4 4 4 4 4 4 4 3 3 4 4 4 3 3 3 4 4 5
0 0 0 0 0 0 1 1 1 2 2 2 2 2 4 5 6 7 7 7 7 6 5 5 6 6 6 6 6 7 7 6 5 4 4 4 4 3 3 3 4 4 3 3 3 4 5 5 5
0 0 0 0 0 0 0 0 1 3 3 3 3 3 4 6 6 7 8 8 7 7 6 6 7 8 7 7 6 7 7 6 5 4 4 4 4 4 4 4 4 4 4 4 4 5 6 7 7
0 0 0 0 0 0 0 1 3 5 5 5 4 4 5 7 7 8 8 8 7 7 7 7 8 8 8 7 6 6 6 5 4 3 4 4 4 4 4 5 5 5 5 5 6 6 7 7 8
0 0 0 0 0 0 0 2 4 6 6 4 4 4 6 8 9 9 9 7 7 8 7 8 8 8 8 7 6 5 4 4 3 3 3 3 4 4 5 6 7 7 7 6 7 7 7 7 6
0 0 0 0 0 0 1 2 5 5 4 3 3 5 8 10 10 10 9 8 7 8 8 9 9 8 8 6 5 5 4 4 3 3 3 3 4 4 6 7 8 8 7 7 7 6 6 5 4
0 0 0 0 0 0 1 2 4 4 2 2 3 5 9 10 9 9 8 8 8 8 10 11 10 8 7 6 5 5 4 4 4 4 4 5 5 6 7 8 8 7 7 7 6 5 4 4 4
0 0 0 0 0 0 1 2 3 3 2 2 3 6 8 8 8 8 8 8 8 9 10 12 11 8 7 6 5 5 5 5 5 5 5 6 7 7 8 8 8 7 7 6 5 4 4 4 5
Wind_Speed
9 11 9 7 4 4 14 16 16 15 16 15 16 16 18 17 13 13 11 15 16 15 13 14 14 14 14 14 15 15 15 15 15 15 15 15 15 15 16 16 16 16 17 17 16 17 17 16 15
10 13 9 5 1 8 13 15 15 14 14 15 18 19 20 19 17 15 13 15 17 15 13 14 15 14 14 14 14 14 14 14 15 15 15 15 15 15 16 16 16 17 17 17 17 17 16 15 13
12 14 7 2 8 10 14 14 13 13 13 16 17 17 14 14 16 13 14 16 16 16 15 15 16 15 15 14 14 13 14 14 14 15 15 15 15 16 16 17 17 17 17 17 16 16 15 13 11
9 7 4 1 12 14 14 12 12 13 14 15 16 14 14 14 15 15 15 16 17 17 16 15 15 15 14 14 13 13 14 14 14 14 15 15 15 16 16 16 16 16 16 16 16 15 13 11 9
9 5 2 6 13 14 13 13 13 13 16 19 19 17 16 17 17 16 15 15 17 17 15 14 15 14 14 14 14 13 14 14 14 14 14 15 15 15 16 16 16 15 15 15 14 14 12 10 8
7 4 1 7 12 13 12 12 14 14 16 19 19 18 14 15 14 14 14 14 17 18 16 14 15 15 14 14 13 13 13 13 14 14 14 14 14 15 15 15 15 15 14 14 13 12 10 8 6
8 5 2 8 12 11 11 10 12 12 14 15 17 16 13 14 12 12 11 13 16 17 15 13 13 13 13 13 13 13 13 13 13 13 13 14 14 14 14 14 14 13 13 12 12 11 9 7 4
7 6 1 7 11 12 11 10 13 13 13 12 13 12 15 15 14 13 12 12 13 14 13 13 12 11 11 11 12 13 12 12 12 12 12 13 13 14 14 13 12 12 11 11 10 9 8 6 3
9 6 1 7 9 11 11 12 13 12 11 10 13 18 20 19 17 14 12 11 10 12 11 12 12 11 11 11 12 11 11 10 10 9 11 10 7 9 9 12 11 11 10 9 9 8 6 4 2
6 2 5 7 9 9 11 11 13 12 12 14 18 20 20 18 16 15 13 13 11 10 10 10 10 10 10 9 8 7 7 7 5 5 6 4 3 6 10 11 11 9 8 7 7 7 5 4 2
5 2 4 5 8 8 8 10 11 11 12 16 19 21 19 17 15 14 13 12 11 9 9 9 7 6 8 7 6 4 4 4 4 5 5 4 4 6 7 5 6 5 6 4 6 6 4 3 1
5 2 2 4 6 5 6 8 9 12 14 18 18 20 18 17 15 14 13 12 11 9 9 9 8 5 4 5 5 5 4 4 4 4 4 4 2 3 4 3 4 4 2 3 3 2 2 2 1
6 3 2 2 3 4 4 7 11 13 16 18 19 18 18 16 14 14 14 13 12 9 9 8 7 6 4 3 2 4 4 5 5 3 3 4 3 3 3 2 2 2 2 2 2 1 2 2 1
5 5 4 4 4 4 5 7 10 13 16 18 18 17 16 15 15 14 13 12 12 11 10 9 8 7 4 3 1 2 4 4 4 3 4 3 3 3 3 2 1 1 1 2 1 2 2 1 1
8 8 8 7 7 6 5 6 8 12 14 16 16 15 14 15 14 14 13 12 12 11 10 9 8 8 5 4 3 3 4 5 4 4 4 3 3 4 3 3 2 2 2 2 1 1 1 1 2
11 11 10 8 8 8 6 6 11 12 14 14 15 15 14 13 14 13 13 11 11 11 10 9 9 10 6 4 2 1 2 4 4 4 4 3 3 3 3 2 2 2 2 2 2 1 1 1 1
12 13 11 10 11 8 7 6 12 13 13 14 13 14 14 13 13 13 14 13 11 10 10 8 7 9 8 6 3 2 2 2 2 3 4 4 4 4 2 1 2 2 2 2 2 2 1 1 1
12 12 12 11 11 8 7 7 9 12 14 14 14 12 13 14 13 14 14 13 11 11 10 8 7 7 7 5 3 2 2 2 2 2 4 5 4 4 2 2 3 3 2 1 1 2 0 1 2
13 10 11 9 9 8 7 7 9 10 11 12 13 14 14 14 14 14 13 13 13 11 10 9 8 8 6 5 5 4 3 3 3 3 5 5 4 4 3 2 3 2 2 2 2 2 2 2 2
15 13 12 7 8 7 6 8 9 9 10 12 13 14 15 15 14 14 13 13 13 12 11 10 9 9 7 5 4 3 3 3 4 3 5 5 5 4 5 4 3 3 2 3 3 2 2 2 2
16 14 12 8 6 7 8 10 9 9 10 10 12 13 15 16 17 16 15 13 14 14 13 11 10 10 9 7 5 4 3 2 3 3 4 5 5 5 4 4 4 3 3 3 3 3 4 3 2
14 14 13 10 8 8 10 9 9 11 11 12 12 12 13 14 16 17 16 14 14 13 13 11 10 10 9 7 7 7 5 4 4 3 4 5 5 5 5 5 4 3 3 3 4 4 3 4 3
12 12 12 11 10 10 11 10 7 11 13 14 13 13 14 14 16 17 17 15 14 14 13 12 11 10 9 8 7 6 6 4 3 4 4 5 4 5 5 5 4 4 3 3 4 3 4 3 4
12 13 10 11 10 12 13 12 7 8 10 11 12 13 13 14 14 15 16 14 13 13 12 12 12 10 9 9 8 7 7 5 4 4 4 4 3 4 5 5 4 4 3 4 4 4 5 4 4
14 11 8 9 10 11 12 12 7 7 10 10 9 10 12 12 12 13 15 14 13 12 12 11 11 10 10 10 8 8 7 6 6 5 4 4 3 3 4 5 4 4 4 4 4 4 4 4 5
16 16 11 10 10 11 13 12 7 7 7 6 6 6 9 10 11 11 13 13 12 12 10 10 10 10 9 9 8 7 7 5 5 5 4 4 3 3 4 4 4 4 4 4 3 3 4 4 4
17 17 17 13 13 9 8 10 7 6 6 6 6 7 8 8 10 10 11 13 12 11 10 10 10 9 9 9 8 7 7 6 5 4 4 3 3 3 3 4 4 4 4 3 3 3 4 4 4
17 16 12 12 10 10 9 9 8 12 10 8 7 7 7 6 7 8 9 9 9 8 9 9 9 9 8 8 7 7 6 6 5 4 5 4 3 2 2 4 4 3 3 3 3 3 3 4 4
17 18 13 10 10 11 7 3 3 9 10 9 8 7 7 7 7 7 7 9 9 8 8 7 7 8 7 7 6 5 6 7 5 4 4 4 3 3 3 3 3 3 3 3 2 3 3 3 3
16 16 15 11 9 9 7 2 1 8 8 9 9 8 7 6 6 7 8 8 8 8 8 7 7 7 6 6 5 5 5 5 5 4 4 3 3 3 2 2 2 2 2 1 2 3 3 3 3
Wind_Direction
271 258 239 253 249 64 65 62 65 69 69 64 65 70 64 58 72 92 111 111 107 104 103 98 93 93 92 91 92 93 92 91 90 89 89 90 93 94 95 96 95 99 101 100 100 99 99 99 100
282 275 252 248 59 71 70 70 68 69 76 77 72 74 73 72 86 103 111 112 110 110 107 100 98 95 93 93 93 93 94 94 93 91 90 90 93 95 96 97 95 96 100 99 99 99 100 101 103
269 262 268 245 76 77 77 76 80 77 80 82 76 66 67 85 94 106 116 116 112 107 103 103 102 98 97 97 96 97 96 95 95 93 91 90 92 93 93 94 94 95 98 98 98 98 99 101 104
270 256 234 81 78 79 83 87 87 87 84 84 85 78 75 87 101 113 120 117 114 109 106 107 107 104 101 101 100 99 98 96 95 94 94 93 93 93 93 94 95 95 96 96 96 98 100 98 98
252 262 259 89 87 85 82 85 82 77 79 81 85 92 90 94 110 121 124 122 116 110 110 111 110 107 105 102 102 100 99 100 100 99 97 95 95 95 95 96 98 97 96 97 98 99 98 96 91
273 262 285 101 94 90 89 91 94 93 99 103 104 101 100 112 120 127 127 122 117 115 114 114 112 110 108 105 104 104 103 102 102 102 101 100 100 99 99 99 99 99 99 99 100 100 99 96 85
274 294 256 109 106 96 89 89 91 90 96 101 109 109 118 125 126 123 122 119 117 118 122 124 122 116 112 109 109 110 108 107 108 109 109 109 107 105 103 101 101 101 102 104 105 105 104 100 87
278 295 281 106 107 101 98 93 92 93 91 111 122 120 136 136 136 129 120 113 116 122 128 129 128 129 128 119 116 116 116 116 117 120 120 118 116 115 113 108 104 104 107 111 114 114 113 110 102
267 273 38 95 103 110 114 106 98 96 96 85 92 118 135 141 138 130 125 118 119 123 129 131 134 141 135 129 127 129 128 128 132 133 136 140 136 127 123 110 114 114 116 120 126 126 130 139 171
265 291 66 79 107 113 115 120 121 114 109 98 102 118 134 144 142 139 139 135 131 128 131 129 138 144 138 132 139 146 139 144 150 135 151 162 127 118 117 123 125 127 129 133 144 149 162 195 197
276 312 68 93 102 108 116 115 118 121 126 129 130 137 145 149 146 148 145 138 135 138 133 129 128 131 133 132 148 137 125 140 141 143 153 153 133 127 127 137 139 147 157 162 153 173 196 204 209
260 296 57 82 90 111 109 110 110 116 120 130 136 144 150 155 155 152 145 142 144 147 137 131 123 111 109 125 132 140 139 144 143 160 164 135 124 122 130 141 157 162 170 163 169 186 175 144 119
240 248 176 144 155 133 123 123 112 107 116 127 138 148 156 159 156 151 150 147 146 148 137 127 125 117 103 93 130 132 134 138 139 147 131 140 136 132 132 128 144 164 154 155 153 140 103 91 67
245 246 223 197 183 167 164 139 124 124 130 135 145 155 163 159 158 154 152 148 152 155 146 137 138 129 125 131 121 121 127 119 133 140 136 145 122 126 128 141 154 143 121 107 103 119 121 116 88
258 249 233 204 197 184 177 151 140 140 140 146 153 158 164 160 159 157 154 153 158 158 149 145 148 142 151 161 178 156 146 147 142 133 137 144 134 132 141 150 177 151 128 123 121 124 131 166 157
241 240 235 204 199 187 195 175 150 156 154 156 159 160 164 162 163 158 153 157 157 154 148 160 163 151 159 173 206 183 155 137 141 142 146 149 134 151 161 164 158 143 144 152 144 189 162 160 149
226 228 221 205 198 189 192 185 155 167 166 164 163 160 163 167 167 158 159 164 159 151 150 162 153 152 162 170 182 217 122 122 139 146 146 153 162 167 178 145 126 148 155 176 192 151 173 178 208
226 225 220 207 183 191 201 174 168 173 172 168 163 163 170 172 170 163 164 164 159 153 152 160 158 155 162 167 172 219 169 161 167 155 151 156 170 175 175 157 162 175 175 173 143 122 169 257 251
248 241 240 217 178 189 203 190 185 187 178 173 169 169 177 174 169 164 167 166 163 158 158 165 170 164 170 174 178 191 186 182 179 183 162 164 177 176 184 197 167 193 184 169 171 160 206 237 243
251 251 248 220 175 188 219 216 201 192 191 183 176 176 176 171 168 167 171 170 168 163 166 171 178 172 181 181 182 186 183 187 188 189 160 168 181 187 192 195 195 192 184 189 200 191 222 246 230
241 248 251 236 193 197 229 233 215 198 205 195 183 181 179 175 173 172 176 177 176 173 175 180 180 176 187 181 181 196 180 209 197 175 167 183 186 194 211 187 204 199 193 196 205 205 213 235 244
235 242 253 244 231 233 227 241 211 189 204 207 194 186 183 179 174 174 179 180 181 178 178 178 176 177 183 185 192 195 192 199 201 186 179 188 195 198 202 198 201 204 210 200 213 210 217 223 241
236 241 249 251 236 248 242 245 224 185 200 202 196 190 185 182 180 176 180 180 183 181 179 177 176 180 180 188 194 201 203 202 200 194 184 187 194 205 207 201 199 204 217 214 222 221 221 227 238
234 239 237 250 247 240 242 248 244 203 198 203 197 191 185 181 179 174 176 174 181 180 179 178 175 180 180 191 195 200 206 205 205 202 190 195 203 206 207 203 198 207 218 223 221 224 226 231 242
222 220 213 223 231 241 239 243 233 202 189 197 191 189 178 174 175 171 172 171 176 179 179 176 173 179 182 191 198 198 202 205 211 209 200 203 209 199 206 209 198 209 215 224 222 225 237 234 242
213 218 220 221 223 231 228 231 225 184 161 165 171 176 171 169 170 168 168 168 175 177 174 171 169 176 181 188 197 197 197 206 210 207 201 201 220 208 197 197 202 208 216 228 221 228 232 233 236
212 222 231 244 259 252 227 209 185 152 150 152 170 174 173 170 167 166 168 168 172 176 173 173 167 173 180 186 188 191 194 200 205 196 204 205 211 220 193 190 209 211 220 230 219 233 239 237 235
226 221 230 241 259 264 242 211 187 167 168 171 179 166 155 152 157 158 157 154 160 165 164 167 165 170 177 182 191 189 190 197 200 197 195 206 216 214 197 199 206 209 218 224 227 242 243 246 249
217 222 229 240 250 254 252 250 217 159 159 165 167 158 150 151 154 146 144 147 150 154 155 152 157 163 173 181 189 187 188 190 191 201 201 205 210 206 203 200 207 215 224 228 232 251 246 246 255
221 224 223 230 242 258 267 278 76 132 145 156 150 138 128 127 124 125 130 135 140 144 144 149 155 163 169 169 177 187 181 179 183 193 199 202 200 200 192 201 211 224 227 240 249 266 272 266 270